Location: Carri�res
(48.9069°N, 2.1792°E)
Time: 12:04:08
(UTC+00:00)

deb Kosmos- 1898 - Pass Details

Date: 02 August 2021
Orbit: 731 x 754 km, 74.0° (Epoch: 18 September)

Event Time Altitude Azimuth Distance (km) Brightness Sun altitude
Exits shadow 03:10:25 12° 250° (WSW) 2,118 ? -10.8°
Maximum altitude 03:14:24 29° 306° (NW) 1,368 ? -10.4°
Drops below altitude 10° 03:18:52 10° 6° (N) 2,282 ? -9.8°
Sets 03:21:33 0° 18° (NNE) 3,214 ? -9.5°
